www.pogodaiklimat.ru
ПОГОДА в Алтуне
Время
и дата
01:37 20.05
01:40 20.05
01:43 20.05
01:50 20.05
01:53 20.05
01:56 20.05
01:58 20.05
02:07 20.05
02:22 20.05
02:53 20.05
03:02 20.05
03:45 20.05
03:53 20.05
04:18 20.05
04:28 20.05
04:53 20.05
05:21 20.05
05:39 20.05
05:42 20.05
05:45 20.05
05:53 20.05
06:00 20.05
06:14 20.05
06:53 20.05
07:00 20.05
07:14 20.05
07:28 20.05
07:40 20.05
07:46 20.05
07:53 20.05
08:53 20.05
09:53 20.05
10:53 20.05
11:53 20.05
12:53 20.05
13:53 20.05
14:53 20.05
15:53 20.05
16:53 20.05
17:53 20.05
18:53 20.05
19:53 20.05
20:53 20.05
21:53 20.05
22:53 20.05
23:53 20.05
00:53 21.05
01:53 21.05
Ветер
(напр.,м/с)
Видим. Явления Облачность Т
(С)
Тd
(С)
f
(%)
Тe
(С)
Тes
(С)
Комфортность P
(гПа)
Po
(гПа)
Тmin
(С)
Tmax
(С)
R
(мм)
R24
(мм)
S
(см)
ЮЗ 2 800 м туман ?/? +13.9 +12.8 93 +13 +13 962.8
ЮЗ 2 2 км дымка ?/? +13.9 +13.3 96 +13 +13 962.8
Ю 2 4 км дымка ясно +13.9 +13.3 96 +13 +13 962.8
ЮЗ 2 5 км дымка ясно +14.0 +13.0 94 +13 +13 962.8
З 2 5 км дымка ясно +13.9 +12.8 93 +13 +13 1016.3 962.5
штиль 0 2 км дымка 2/2 30 м +13.3 +12.8 97 +13 +13 962.5
штиль 0 800 м туман ?/? +13.3 +12.8 97 +13 +13 962.5
штиль 0 400 м туман ?/? +13.3 +12.8 97 +13 +13 962.5
штиль 0 800 м туман ?/? +13.3 +12.8 97 +13 +13 962.5
Ю 2 800 м туман ?/? +13.3 +12.2 93 +13 +13 1016.0 962.5
Ю 2 400 м туман ?/? +13.3 +12.2 93 +13 +13 962.1
штиль 0 800 м туман ?/? +13.3 +12.2 93 +13 +13 962.1
штиль 0 400 м туман ?/? +12.8 +12.2 96 +12 +12 1015.6 962.1
штиль 0 800 м туман ?/? +12.8 +12.2 96 +12 +12 962.1
штиль 0 400 м туман ?/? +12.8 +12.2 96 +12 +12 962.1
штиль 0 400 м туман ?/? +11.7 +11.1 96 +11 +11 1016.5 962.8
штиль 0 <100 м туман ?/? +12.2 +11.7 97 +12 +12 963.1
штиль 0 400 м туман ?/? +12.8 +12.2 96 +12 +12 963.4
штиль 0 1 км дымка ?/? +13.3 +12.2 93 +13 +13 963.4
штиль 0 400 м туман 10/10 30 м +13.3 +12.2 93 +13 +13 963.4
штиль 0 400 м туман 10/10 30 м +12.8 +12.2 96 +12 +12 1017.3 963.7
штиль 0 1 км дымка 10/10 30 м +13.3 +12.8 97 +13 +13 963.7
З 2 400 м туман ?/? +13.3 +12.2 93 +13 +13 963.7
штиль 0 400 м туман ?/? +14.4 +13.9 97 +14 +14 1017.5 963.7 +11.7 +14.4
штиль 0 1 км дымка 10/10 30 м +15.0 +14.4 96 +15 +15 964.1
З 2 800 м туман 10/10 30 м +15.0 +14.4 96 +15 +15 964.1
З 2 2 км дымка 8/8 30 м +15.6 +15.0 96 +15 +16 964.1
штиль 0 4 км дымка 8/8 30 м +16.1 +15.6 97 +16 +17 964.1
штиль 0 10 км дымка 5/5 30 м +16.7 +16.1 96 +17 +19 964.1
штиль 0 16 км 2/2 30 м +16.7 +16.7 100 +17 +20 1017.9 964.1
ЮЗ 2 16 км ясно +21.1 +15.0 68 +24 +31 комфорт 1017.8 964.1
ЮЗ 3 16 км ясно +23.9 +12.2 48 +26 +35 жарко 1017.4 964.1
ЮЗ 3 16 км ясно +24.4 +12.2 46 +26 +39 жарко 1017.2 963.7
ЮЗ 2 16 км ясно +25.6 +12.8 45 +27 +46 жарко 1016.9 963.4
штиль 0 16 км 2/2 1500 м +26.1 +12.2 42 +28 +49 жарко 1016.3 963.1 +14.4 +27.2
нст 2 16 км ясно +27.2 +12.8 41 +29 +48 жарко 1016.2 963.1
Ю 3 16 км 5/5 1650 м +27.8 +13.3 41 +30 +36 жарко 1015.7 962.5
ЮВ 3 16 км ясно +27.2 +13.3 42 +29 +40 жарко 1015.3 962.1
Ю 2 16 км ясно +26.7 +12.8 42 +28 +37 жарко 1015.0 961.8
Ю 3 16 км ясно +26.7 +12.8 42 +28 +32 жарко 1015.0 961.8
Ю 4 16 км ясно +24.4 +13.3 50 +27 +28 жарко 1015.2 961.8 +24.4 +27.8
Ю 3 16 км ясно +22.2 +13.3 57 +25 +25 комфорт 1015.6 962.1
Ю 2 16 км ясно +20.6 +12.8 61 +24 +24 комфорт 1015.4 962.1
Ю 2 16 км ясно +19.4 +13.3 68 +21 +21 комфорт 1015.6 962.5
Ю 2 16 км ясно +18.3 +13.3 73 +19 +19 1015.8 962.5
штиль 0 16 км ясно +17.8 +12.8 73 +18 +18 1015.4 962.1
штиль 0 16 км ясно +16.7 +12.8 78 +17 +17 1015.2 962.1 +16.1 +24.4
штиль 0 16 км ясно +15.6 +12.8 83 +15 +15 1015.2 962.1
Местоположение метеостанции Altoona-Blair County Airport: широта 40.3000 долгота -78.3169 высота над уровнем моря 458 м.
В архиве по умолчанию представлена погода в Алтуне за последние 1-2 суток. Обновление информации о фактической погоде в базе происходит ежечасно! Архивные данные за месяц целиком и за предыдущие месяцы Вы можете получить, выбрав интересующий диапазон дат из раскрывающегося списка и нажав кнопку "Ввод!".
Внимание! Архив погоды МЕТАР в базе сайта по станциям, не включенным в климатический монитор, хранится не более 60 дней. Нет смысла пытаться выбрать более раннюю дату.
*Определитесь, кто Вы:
Внимание! Время в таблицах - местное (без учета летнего времени). Для получения всемирного времени необходимо вычесть поправку, которая равна -5 ч.
Смотрите также архив погоды в соседних городах и на ближайших метеорологических станциях:
Партнеры нашего сайта:      
Пояснения к столбцам:
  • Ветер - указаны скорость ветра в м/с - средняя за 10 мин, порывы в срок и между сроками (в фигурных скобках) и направление, откуда дует ветер: С - северный,
  • СВ - северо-восточный, В - восточный, ЮВ - юго-восточный, Ю - южный, ЮЗ - юго-западный, З - западный, СЗ - северо-западный.
  • Видимость - горизонтальная дальность видимости в метрах или километрах. При видимости от 1 до 10 км при отсутствии осадков обычно наблюдается дымка, при ухудшении видимости до 1 км и менее - туман. В сухую погоду видимость может ухудшаться дымом, пылью или мглою.
  • Явления - указаны атмосферные явления, наблюдавшиеся в срок или в последний час перед сроком; фигурными скобками обозначены явления, наблюдавшиеся между сроками (за 1-3 часа до срока); квадратными скобками обозначены град или гололедные отложения с указанием их диаметра в мм.
  • Облачность - указаны через наклонную черту общая и нижняя облачность в баллах и высота нижней границы облаков в метрах; квадратными скобками обозначены формы облаков: Ci - перистые, Cs - перисто-слоистые, Cc - перисто-кучевые, Ac - высококучевые, As - высокослоистые, Sc - слоисто-кучевые, Ns - слоисто-дождевые, Cu - кучевые, Cb - кучево-дождевые. Подробнее классификацию облаков см. в Атласе облаков (PDF).
  • T - Температура воздуха - температура, измеренная на высоте 2 м над землей.
  • Td - Температура точки росы - температура, при понижении до которой содержащийся в воздухе водяной пар достигнет насыщения.
  • f - Относительная влажность воздуха - влажноcть воздуха, измеренная на высоте 2 м над землей.
  • Te - Эффективная температура - температура, которую ощущает одетый по сезону человек в тени. Характеристика душности погоды. При расчете учитывается влияние влажности воздуха и скорости ветра на теплоощущения человека.
  • Tes - Эффективная температура на солнце - температура, которую ощущает человек, с поправкой на солнечный нагрев. Характеристика знойности погоды. Зависит от высоты солнца над горизонтом, облачности и скорости ветра. Ночью, в пасмурную погоду, а также при ветре 12 м/с и более поправка равна нулю.
  • P - Атмосферное давление - приведенное к уровню моря атмосферное давление.
  • Po - Атмосферное давление - измеренное на уровне метеостанции атмосферное давление.
  • Tmin - Минимальная температура - минимум температуры воздуха на высоте 2 м над землей.
  • Tmax - Максимальная температура - максимум температуры воздуха на высоте 2 м над землей.
  • R - Количество осадков - Количество выпавших осадков за период времени, мм. При наведении курсора мыши на число - период времени, за который выпало указанное количество осадков.
  • R24 - Количество осадков - Количество выпавших осадков за 24 часа, мм.
  • S - Снежный покров - Высота снежного покрова, см. При наведении курсора мыши на число - состояние снежного покрова и степень покрытия местности в баллах.